EW5980 Weather Reports


Display with metric or nautical units.
time (UTC)temp
F
wind
direction
speed
MPH
gust
MPH
rain 1hr
in
rain 24hr
in
rain mn
in
humidity
%
barometer
mb
20260903163055 98 0.0 0.0 0.00 0.00 0.00 52 1016.7
20260903161553 98 0.0 0.0 0.00 0.00 0.00 52 1016.8
20260903160108 97 0.0 0.0 0.00 0.00 0.00 54 1016.9
20260903154558 96 0.0 0.0 0.00 0.00 0.00 57 1016.8
20260903153057 95 0.0 0.0 0.00 0.00 0.00 58 1016.8
20260903151555 94 0.0 0.0 0.00 0.00 0.00 60 1016.8
20260903150105 94 0.0 0.0 0.00 0.00 0.00 60 1016.8
20260903144606 93 0.0 0.0 0.00 0.00 0.00 63 1016.8
20260903143110 91 0.0 0.0 0.00 0.00 0.00 66 1016.8
20260903141556 89 0.0 0.0 0.00 0.00 0.00 69 1017.0
20260903140111 87 0.0 0.0 0.00 0.00 0.00 74 1017.0
20260903134557 85 0.0 0.0 0.00 0.00 0.00 77 1017.1
20260903133059 83 0.0 0.0 0.00 0.00 0.00 78 1017.1
20260903131601 82 0.0 0.0 0.00 0.00 0.00 78 1017.1
20260903130058 81 0.0 0.0 0.00 0.00 0.00 71 1017.0
20260903124557 79 0.0 0.0 0.00 0.00 0.00 56 1017.0
20260903123056 78 0.0 0.0 0.00 0.00 0.00 58 1016.9
20260903121558 78 0.0 0.0 0.00 0.00 0.00 60 1016.8
20260903120104 78 0.0 0.0 0.00 0.00 0.00 62 1016.7
20260903114554 78 0.0 0.0 0.00 0.00 0.00 62 1016.8
20260903113056 78 0.0 0.0 0.00 0.00 0.00 63 1016.5
20260903111557 78 0.0 0.0 0.00 0.00 0.00 65 1016.2
20260903110052 78 0.0 0.0 0.00 0.00 0.00 67 1016.1
20260903104558 78 0.0 0.0 0.00 0.00 0.00 68 1016.1
20260903103055 78 0.0 0.0 0.00 0.00 0.00 69 1016.1
20260903101556 79 0.0 0.0 0.00 0.00 0.00 70 1015.9
20260903100054 79 0.0 0.0 0.00 0.00 0.00 71 1015.7
20260903094601 79 0.0 0.0 0.00 0.00 0.00 72 1015.8
20260903093119 79 0.0 0.0 0.00 0.00 0.00 73 1015.7
20260903091556 79 0.0 0.0 0.00 0.00 0.00 73 1015.7
20260903090050 79 0.0 0.0 0.00 0.00 0.00 74 1015.7
20260903084556 79 0.0 0.0 0.00 0.00 0.00 74 1015.7
20260903083059 79 0.0 0.0 0.00 0.00 0.00 75 1015.8
20260903081553 79 0.0 0.0 0.00 0.00 0.00 76 1015.9
20260903080104 79 0.0 0.0 0.00 0.00 0.00 77 1015.6
20260903074621 79 0.0 0.0 0.00 0.00 0.00 77 1015.7
20260903073106 79 0.0 0.0 0.00 0.00 0.00 77 1015.7
20260903071607 79 0.0 0.0 0.00 0.00 0.00 78 1015.8
20260903070110 80 0.0 0.0 0.00 0.00 0.00 78 1015.8
20260903064555 80 0.0 0.0 0.00 0.00 0.00 79 1015.9
20260903063100 80 0.0 0.0 0.00 0.00 0.00 79 1016.0
20260903061558 80 0.0 0.0 0.00 0.00 0.00 79 1016.2
20260903060049 80 0.0 0.0 0.00 0.00 0.00 79 1016.2
20260903054602 81 0.0 0.0 0.00 0.00 0.00 78 1016.2
20260903053056 81 0.0 0.0 0.00 0.00 0.00 78 1016.1
20260903051602 81 0.0 0.0 0.00 0.00 0.00 78 1016.2
20260903050105 81 0.0 0.0 0.00 0.00 0.00 78 1016.2
20260903044559 81 0.0 0.0 0.00 0.00 0.00 78 1016.2
20260903043053 82 0.0 0.0 0.00 0.00 0.00 77 1016.1
20260903041548 82 0.0 0.0 0.00 0.00 0.00 77 1016.1
20260903040100 82 0.0 0.0 0.00 0.00 0.00 77 1015.9
20260903034600 83 0.0 0.0 0.00 0.00 0.00 77 1015.9
20260903033055 83 0.0 0.0 0.00 0.00 0.00 76 1015.9
20260903031633 83 0.0 0.0 0.00 0.00 0.00 76 1016.0
20260903030100 83 0.0 0.0 0.00 0.00 0.00 75 1016.1
20260903024557 84 0.0 0.0 0.00 0.00 0.00 74 1016.0
20260903023104 84 0.0 0.0 0.00 0.00 0.00 73 1015.9
20260903021558 85 0.0 0.0 0.00 0.00 0.00 72 1015.8
20260903020052 85 0.0 0.0 0.00 0.00 0.00 71 1015.7
20260903014559 86 0.0 0.0 0.00 0.00 0.00 70 1015.6
20260903013057 86 0.0 0.0 0.00 0.00 0.00 68 1015.4
20260903011546 86 0.0 0.0 0.00 0.00 0.00 67 1015.4
20260903010050 87 0.0 0.0 0.00 0.00 0.00 67 1015.5
20260903004558 87 0.0 0.0 0.00 0.00 0.00 66 1015.5
20260903003100 88 0.0 0.0 0.00 0.00 0.00 65 1015.1
20260903001548 89 0.0 0.0 0.00 0.00 0.00 64 1015.1
20260903000057 89 0.0 0.0 0.00 0.00 0.00 62 1015.3
20260902234602 90 0.0 0.0 0.00 0.00 0.00 60 1014.9
20260902233047 92 0.0 0.0 0.00 0.00 0.00 58 1015.2
20260902231559 93 0.0 0.0 0.00 0.00 0.00 54 1014.8
20260902230056 93 0.0 0.0 0.00 0.00 0.00 54 1014.8
20260902224604 93 0.0 0.0 0.00 0.00 0.00 54 1014.7
20260902223050 93 0.0 0.0 0.00 0.00 0.00 55 1014.8
20260902221547 94 0.0 0.0 0.00 0.00 0.00 55 1015.0
20260902220100 94 0.0 0.0 0.00 0.00 0.00 56 1015.2
20260902214554 95 0.0 0.0 0.00 0.00 0.00 52 1015.2
20260902213103 94 0.0 0.0 0.00 0.00 0.00 52 1015.2
20260902211549 94 0.0 0.0 0.00 0.00 0.00 53 1015.4
20260902210100 94 0.0 0.0 0.00 0.00 0.00 52 1015.6
20260902204554 94 0.0 0.0 0.00 0.00 0.00 54 1015.7
20260902203111 94 0.0 0.0 0.00 0.00 0.00 54 1015.7
20260902201550 94 0.0 0.0 0.00 0.00 0.00 52 1015.9
20260902200100 95 0.0 0.0 0.00 0.00 0.00 52 1016.0
20260902194555 95 0.0 0.0 0.00 0.00 0.00 52 1016.3
20260902193055 95 0.0 0.0 0.00 0.00 0.00 53 1016.4
20260902191559 96 0.0 0.0 0.00 0.00 0.00 51 1016.7
20260902190058 97 0.0 0.0 0.00 0.00 0.00 50 1016.8
20260902184600 98 0.0 0.0 0.00 0.00 0.00 47 1016.8
20260902183102 97 0.0 0.0 0.00 0.00 0.00 50 1017.1
20260902181549 96 0.0 0.0 0.00 0.00 0.00 48 1017.4
20260902180056 98 0.0 0.0 0.00 0.00 0.00 48 1017.5
20260902174559 97 0.0 0.0 0.00 0.00 0.00 48 1017.7
20260902173059 97 0.0 0.0 0.00 0.00 0.00 47 1018.1
20260902171606 97 0.0 0.0 0.00 0.00 0.00 52 1018.2
20260902170057 96 0.0 0.0 0.00 0.00 0.00 52 1018.3
20260902164551 96 0.0 0.0 0.00 0.00 0.00 55 1018.5